User: anonymous
Location: Caltech
(34.1382°N, 118.1253°W)
Time: 16:26:51
(UTC-07:00)
Language:

UOSAT-12 - Orbit

View from above orbital plane
View from above orbital plane
View from above satellite
View from above satellite

Ground track
Ground track

The orbit data is extracted from the following two-line orbital elements,

1 25693U 99021A   14244.78795332  .00000217  00000-0  47275-4 0  5833
2 25693 064.5584 026.4363 0049458 278.5247 187.1052 14.80015315829256
Epoch (UTC): 01 September 2014 18:54:39
Eccentricity: 0.0049458
inclination: 64.5584°
perigee height: 594 km
apogee height: 664 km
right ascension of ascending node: 26.4363°
argument of perigee: 278.5247°
revolutions per day: 14.80015315
mean anomaly at epoch: 187.1052°
orbit number at epoch: 82925

The dashed part of the orbit path shows where the satellite is in the earth's shadow,  

DLR